Miscellaneous Local Product
Issued by NWS North Platte, NE

Home | Current Version | Previous Version | Graphics & Text | Print | Product List | Glossary On
Versions: 1 2 3 4 5 6 7 8 9 10 11 12 13 14 15 16 17 18 19 20 21 22 23 24 25 26 27 28 29 30 31 32 33 34 35 36 37 38 39 40 41 42 43 44 45 46 47 48 49 50
000
AXUS43 KLBF 200110
MISLBF


WESTERN AND NORTH CENTRAL NEBRASKA HOURLY WEATHER ROUNDUP
NATIONAL WEATHER SERVICE NORTH PLATTE NE
800 PM CDT FRI SEP 19 2014

***STATIONS NOT REPORTING VARIABLES SUCH AS SKY/WEATHER OR
PRESSURE ARE PROVIDED BY THE NEBRASKA DEPARTMENT OF
ROADS...RAWS...AND APRS NETWORKS...AND ARE NOT UNDER
NATIONAL WEATHER SERVICE QUALITY CONTROL***

...OBSERVATIONS IN AND NEAR THE EASTERN PANHANDLE OF NEBRASKA...

CITY           SKY/WX    TMP DP  RH WIND       PRES   REMARKS
PINE RIDGE     CLEAR     73  55  53 NE5       29.85R
CHADRON        CLEAR     78  50  37 NW5       29.84R
ALLIANCE       CLEAR     74  53  48 NE9       29.88R
WHITECLAY        N/A     67  54  64 CALM        N/A
RUSHVILLE        N/A     77  37  24 N8          N/A
CRESCENT LAKE    N/A     78  51  38 E5          N/A
LISCO            N/A     81  54  38 CALM        N/A
$$

...OBSERVATIONS IN NORTH CENTRAL NEBRASKA...

CITY           SKY/WX    TMP DP  RH WIND       PRES   REMARKS
VALENTINE      PTCLDY    78  55  44 NE6       29.81R
THEDFORD       PTCLDY    79  58  49 CALM      29.83R
AINSWORTH      MOCLDY    76  62  61 N3        29.81S
O`NEILL        PTCLDY    79  65  62 CALM      29.77R
ORD            CLEAR     80  62  54 S10       29.74S
BROKEN BOW     CLEAR     82  58  43 S7        29.78R
SPRINGVIEW       N/A     78  62  57 CALM        N/A
ROSE             N/A     81  64  56 N5          N/A
NEWPORT          N/A     76  62  60 CALM        N/A
COMSTOCK         N/A     84  65  51 S8          N/A
CHAMBERS         N/A     75  61  62 CALM        N/A
$$

...OBSERVATIONS IN SOUTHWEST NEBRASKA AND FAR NORTHEAST COLORADO...

CITY           SKY/WX    TMP DP  RH WIND       PRES   REMARKS
WRAY           FAIR      82  49  32 SE3       29.86S
HOLYOKE        FAIR      79  59  50 S8        29.87R
IMPERIAL       CLEAR     80  54  40 S7        29.83S
OGALLALA       PTCLDY    73  59  63 CALM      29.84R
NORTH PLATTE   CLEAR     79  59  50 S8        29.79R
MCCOOK         CLEAR     83  60  45 S15       29.82S
LEXINGTON      CLEAR     76  63  63 S9        29.81S
SUTHERLAND       N/A     85  51  30 S6          N/A
BRADY            N/A     81  60  49 CALM        N/A
GOTHENBURG       N/A     88  55  32 S6          N/A
CALLAWAY         N/A     82  64  53 S9          N/A
$$

...SOME WEATHER OBSERVATIONS FROM AROUND THE REGION...

CITY           SKY/WX    TMP DP  RH WIND       PRES   REMARKS
DENVER         MOCLDY    77  44  30 SE7       29.98R
LARAMIE        MOCLDY    67  38  34 NW13      30.14R
CHEYENNE       CLOUDY    77  39  25 NW5       30.05R
SCOTTSBLUFF    CLEAR     78  49  35 E5        29.88R
RAPID CITY     PTCLDY    73  49  42 N13       29.88R
PIERRE         CLEAR     73  55  53 NW10      29.75R
WINNER         FAIR      78  56  46 W5        29.78R
SIOUX FALLS    PTCLDY    76  65  68 W5        29.71R
OMAHA          PTCLDY    80  68  66 S17       29.79S
GRAND ISLAND   CLEAR     78  64  61 S10       29.80S
KANSAS CITY    PTCLDY    72  68  87 S9        29.92F
WICHITA        CLEAR     81  65  58 SE14      29.92R
HAYS           PTCLDY    79  61  53 S10       29.88R
LIBERAL        MOCLDY    81  57  44 S14G20    29.95R
GOODLAND       CLEAR     79  60  52 S16       29.89R
$$



USA.gov is the U.S. government's official web portal to all federal, state and local government web resources and services.